Voltar ao catálogo

DELTA 1 DEB

AtivoLEO
NORAD 2224·DEBRIS·🇺🇸 United States

Lançado Feb 28, 1966 de Cape Canaveral Space Force Station

Loading…

Próximas Passagens (próximas 24 horas)

TLE

AtualizadoSource: Space-Track

Época: Sep 14, 2026, 05:33 UTC

1 02224U 66016D   26257.23173516 -.00000001  00000-0  24796-3 0  9992
2 02224 101.1466 171.2153 0138475  48.7233 104.7379 12.52180213757045

Acompanhe DELTA 1 DEB em tempo real com AllMySat

Download on the App Store